Location: Blythe
(33.2930°N, 82.2020°W)
Time: 03:49:47

Hubble Space Telescope - Visible Passes

Search period start: 20 March 2018 00:00
Search period end: 30 March 2018 00:00
Orbit: 537 x 541 km, 28.5° (Epoch: 19 March)

Date Brightness Start Highest point End Pass type
(mag) Time Alt. Az. Time Alt. Az. Time Alt. Az.
20 Mar 2.7 20:38:28 10° WSW 20:41:35 20° SSW 20:44:32 11° SSE visible
21 Mar 3.0 20:28:27 10° WSW 20:31:12 17° SSW 20:33:56 10° SSE visible
22 Mar 3.3 20:18:37 10° SW 20:20:49 14° SSW 20:23:00 10° S visible
23 Mar 3.5 20:09:13 10° SW 20:10:25 11° SSW 20:11:37 10° S visible
